CW7575 Weather Reports


Display with metric or nautical units.
time (UTC)temp
F
wind
direction
speed
MPH
gust
MPH
rain 1hr
in
rain 24hr
in
rain mn
in
humidity
%
barometer
mb
20260507010059 57 190 2.0 6.0 0.00 0.07 0.07 95 1005.7
20260507004536 57 360 2.0 6.0 0.00 0.07 0.07 95 1005.9
20260507003114 57 198 3.0 8.0 0.00 0.07 0.07 95 1005.8
20260507001550 57 213 2.0 10.0 0.00 0.07 0.07 95 1005.7
20260507000055 57 172 2.0 11.0 0.00 0.07 0.07 94 1005.5
20260506234519 57 204 4.0 10.0 0.00 0.07 0.07 94 1005.6
20260506233043 57 360 2.0 9.0 0.01 0.07 0.07 94 1005.4
20260506231519 57 187 6.0 10.0 0.01 0.07 0.07 94 1005.4
20260506230052 57 360 2.0 10.0 0.02 0.07 0.07 93 1005.3
20260506224512 57 155 3.0 9.0 0.02 0.07 0.07 93 1005.3
20260506223032 58 165 3.0 9.0 0.01 0.06 0.06 93 1005.3
20260506221508 58 360 5.0 11.0 0.01 0.06 0.06 93 1005.2
20260506220036 58 217 5.0 11.0 0.00 0.05 0.05 93 1005.1
20260506214555 58 360 3.0 9.0 0.00 0.05 0.05 93 1005.2
20260506213021 58 360 5.0 12.0 0.00 0.05 0.05 92 1005.5
20260506211547 58 208 3.0 9.0 0.00 0.05 0.05 92 1005.7
20260506210044 58 188 1.0 11.0 0.00 0.05 0.05 91 1005.7
20260506204547 59 360 4.0 15.0 0.00 0.05 0.05 91 1006.0
20260506203017 59 192 4.0 10.0 0.00 0.05 0.05 91 1005.9
20260506201541 58 360 5.0 13.0 0.02 0.05 0.05 91 1006.1
20260506200012 58 360 5.0 14.0 0.04 0.05 0.05 91 1006.2
20260506194531 58 194 3.0 11.0 0.04 0.05 0.05 91 1006.3
20260506193106 59 360 6.0 11.0 0.05 0.05 0.05 90 1006.5
20260506191529 59 360 2.0 15.0 0.03 0.03 0.04 89 1006.6
20260506190054 59 190 4.0 10.0 0.01 0.01 0.01 87 1006.4
20260506184527 60 360 5.0 11.0 0.01 0.01 0.01 86 1006.6
20260506183044 60 196 5.0 11.0 0.00 0.00 0.00 83 1007.0
20260506181527 62 152 4.0 14.0 0.00 0.00 0.00 78 1007.1
20260506180041 63 167 6.0 12.0 0.00 0.00 0.00 75 1007.3
20260506174514 64 138 5.0 11.0 0.00 0.00 0.00 74 1007.3
20260506173046 65 161 5.0 11.0 0.00 0.00 0.00 71 1007.4
20260506171510 66 144 3.0 15.0 0.00 0.00 0.00 71 1007.7
20260506170047 66 227 5.0 15.0 0.00 0.00 0.00 70 1007.6
20260506164528 66 147 6.0 14.0 0.00 0.00 0.00 68 1007.6
20260506163042 67 211 6.0 14.0 0.00 0.00 0.00 68 1007.8
20260506161557 67 163 6.0 14.0 0.00 0.00 0.00 68 1008.1
20260506160035 68 201 6.0 14.0 0.00 0.00 0.00 67 1008.2
20260506154601 68 188 4.0 14.0 0.00 0.00 0.00 66 1008.1
20260506154502 68 144 5.0 13.0 0.00 0.00 0.00 67 1008.1
20260506153034 68 175 6.0 12.0 0.00 0.00 0.00 67 1008.3
20260506151604 67 132 7.0 15.0 0.00 0.00 0.00 68 1008.5
20260506150028 67 141 6.0 17.0 0.00 0.00 0.00 69 1008.5
20260506144544 67 195 6.0 12.0 0.00 0.00 0.00 68 1008.6
20260506143023 66 166 5.0 15.0 0.00 0.00 0.00 70 1008.7
20260506141548 66 173 5.0 17.0 0.00 0.00 0.00 70 1008.7
20260506140026 66 192 7.0 14.0 0.00 0.00 0.00 70 1008.6
20260506134556 65 152 5.0 12.0 0.00 0.00 0.00 72 1008.7
20260506133024 65 219 6.0 15.0 0.00 0.00 0.00 73 1008.8
20260506131603 64 147 5.0 12.0 0.00 0.00 0.00 74 1008.8
20260506130021 63 190 4.0 14.0 0.00 0.00 0.00 77 1009.2
20260506124545 62 185 6.0 11.0 0.00 0.00 0.00 78 1009.1
20260506123018 61 213 5.0 10.0 0.00 0.00 0.00 80 1009.1
20260506121552 60 180 4.0 13.0 0.00 0.00 0.00 82 1009.1
20260506120030 60 200 6.0 13.0 0.00 0.00 0.00 82 1009.2
20260506114548 59 160 7.0 12.0 0.00 0.00 0.00 84 1009.4
20260506113026 58 157 4.0 10.0 0.00 0.00 0.00 86 1009.6
20260506111545 58 156 4.0 10.0 0.00 0.00 0.00 86 1009.6
20260506110016 58 182 5.0 11.0 0.00 0.00 0.00 87 1009.4
20260506104542 57 191 4.0 10.0 0.00 0.00 0.00 86 1009.5
20260506103059 57 154 3.0 8.0 0.00 0.00 0.00 86 1009.4
20260506103005 57 154 3.0 8.0 0.00 0.00 0.00 86 1009.4
20260506101529 58 184 4.0 10.0 0.00 0.00 0.00 86 1009.3
20260506100113 58 161 4.0 10.0 0.00 0.00 0.00 85 1009.3
20260506100002 58 146 4.0 10.0 0.00 0.00 0.00 85 1009.3
20260506094526 58 157 4.0 8.0 0.00 0.00 0.00 85 1009.3
20260506093055 58 146 5.0 12.0 0.00 0.00 0.00 84 1009.3
20260506091520 58 175 4.0 8.0 0.00 0.00 0.00 84 1009.3
20260506090047 58 155 2.0 8.0 0.00 0.00 0.00 84 1009.5
20260506084523 58 174 4.0 11.0 0.00 0.00 0.00 83 1009.4
20260506083037 58 163 4.0 9.0 0.00 0.00 0.00 83 1009.7
20260506081601 58 160 3.0 10.0 0.00 0.00 0.00 83 1009.7
20260506073007 59 159 6.0 10.0 0.00 0.00 0.00 82 1009.7
20260506071533 59 193 4.0 11.0 0.00 0.00 0.00 81 1009.6
20260506061507 60 163 5.0 11.0 0.00 0.00 0.00 79 1009.6
20260506050103 62 140 6.0 15.0 0.00 0.00 0.00 73 1010.0
20260506044515 62 165 5.0 12.0 0.00 0.00 0.00 72 1010.2
20260506043044 62 141 5.0 10.0 0.00 0.00 0.00 71 1010.2
20260506041606 62 171 5.0 12.0 0.00 0.00 0.00 71 1010.2
20260506040032 62 207 4.0 10.0 0.00 0.00 0.00 70 1010.2
20260506034536 62 165 4.0 11.0 0.00 0.00 0.00 69 1010.2
20260506033004 62 182 5.0 12.0 0.00 0.00 0.00 68 1010.2
20260506031534 62 157 5.0 11.0 0.00 0.00 0.00 69 1010.0
20260506030052 62 185 5.0 10.0 0.00 0.00 0.00 69 1009.9
20260506024522 62 141 5.0 10.0 0.00 0.00 0.00 69 1010.0
20260506023053 61 155 3.0 9.0 0.00 0.00 0.00 69 1009.9
20260506021504 61 243 7.0 15.0 0.00 0.00 0.00 69 1009.9
20260506020027 61 182 6.0 10.0 0.00 0.00 0.00 69 1009.8
20260506014546 61 198 4.0 9.0 0.00 0.00 0.00 70 1009.8
20260506013013 61 153 4.0 9.0 0.00 0.00 0.00 70 1009.7
20260506011540 61 180 7.0 14.0 0.00 0.00 0.00 69 1009.6